GW6445 Weather Reports


Display with metric or nautical units.
time (UTC)temp
F
wind
direction
speed
MPH
gust
MPH
rain 1hr
in
rain 24hr
in
rain mn
in
humidity
%
barometer
mb
20260505124735 53 223 2.0 3.0 0.00 0.00 0.00 87 1014.5
20260505124221 53 222 1.0 2.0 0.00 0.00 0.00 87 1014.5
20260505123715 53 207 1.0 2.0 0.00 0.00 0.00 88 1014.5
20260505123205 53 239 1.0 2.0 0.00 0.00 0.00 87 1014.5
20260505122657 53 203 2.0 2.0 0.00 0.00 0.00 87 1014.5
20260505122152 53 218 2.0 3.0 0.00 0.00 0.00 87 1014.5
20260505121638 53 214 1.0 2.0 0.00 0.00 0.00 87 1014.4
20260505121133 53 220 2.0 2.0 0.00 0.00 0.00 87 1014.5
20260505120619 53 180 0.0 2.0 0.00 0.00 0.00 87 1014.6
20260505120114 53 256 0.0 2.0 0.00 0.00 0.00 87 1014.5
20260505115606 54 151 0.0 2.0 0.00 0.00 0.00 86 1014.5
20260505115101 54 111 0.0 2.0 0.00 0.00 0.00 86 1014.4
20260505114552 54 232 0.0 1.0 0.00 0.00 0.00 86 1014.3
20260505114047 54 250 1.0 2.0 0.00 0.00 0.00 86 1014.4
20260505113801 54 319 0.0 2.0 0.00 0.00 0.00 86 1014.4
20260505113035 54 243 0.0 2.0 0.00 0.00 0.00 86 1014.3
20260505112527 54 237 2.0 2.0 0.00 0.00 0.00 86 1014.4
20260505112022 54 216 1.0 2.0 0.00 0.00 0.00 87 1014.4
20260505111508 54 274 0.0 2.0 0.00 0.00 0.00 87 1014.4
20260505111003 54 136 0.0 2.0 0.00 0.00 0.00 87 1014.5
20260505110448 54 215 1.0 2.0 0.00 0.00 0.00 87 1014.3
20260505101840 54 290 3.0 3.0 0.00 0.00 0.00 87 1013.8
20260505101325 54 178 1.0 2.0 0.00 0.00 0.00 85 1014.0
20260505100821 54 306 2.0 2.0 0.00 0.00 0.00 85 1013.9
20260505100527 54 321 1.0 2.0 0.00 0.00 0.00 85 1014.1
20260505095801 54 70 0.0 2.0 0.00 0.00 0.00 85 1013.8
20260505095515 54 233 2.0 2.0 0.00 0.00 0.00 85 1013.9
20260505094748 54 230 2.0 3.0 0.00 0.00 0.00 85 1014.1
20260505094235 54 213 2.0 4.0 0.00 0.00 0.00 85 1013.8
20260505093730 54 218 2.0 3.0 0.00 0.00 0.00 85 1013.9
20260505093221 54 185 2.0 3.0 0.00 0.00 0.00 85 1013.7
20260505092711 54 245 2.0 3.0 0.00 0.00 0.00 84 1013.6
20260505092205 54 240 2.0 3.0 0.00 0.00 0.00 84 1013.6
20260505091652 55 239 2.0 3.0 0.00 0.00 0.00 84 1013.6
20260505091146 55 209 2.0 3.0 0.00 0.00 0.00 84 1013.6
20260505090632 55 200 1.0 2.0 0.00 0.00 0.00 84 1013.5
20260505090127 55 211 0.0 4.0 0.00 0.00 0.00 83 1013.4
20260505085613 55 180 0.0 2.0 0.00 0.00 0.00 83 1013.5
20260505085109 56 232 0.0 2.0 0.00 0.00 0.00 83 1013.3
20260505084554 56 273 1.0 2.0 0.00 0.00 0.00 85 1013.2
20260505084049 56 130 0.0 1.0 0.00 0.00 0.00 86 1013.4
20260505083542 56 33 0.0 2.0 0.00 0.00 0.00 86 1013.3
20260505083030 56 26 2.0 2.0 0.00 0.00 0.00 86 1013.3
20260505082526 56 96 0.0 1.0 0.00 0.00 0.00 85 1013.3
20260505082011 56 113 0.0 2.0 0.00 0.00 0.00 84 1013.4
20260505081506 56 222 0.0 2.0 0.00 0.00 0.00 83 1013.3
20260505080952 56 216 2.0 3.0 0.00 0.00 0.00 83 1013.3
20260505080447 56 232 0.0 2.0 0.00 0.00 0.00 83 1013.3
20260505075938 56 236 0.0 2.0 0.00 0.00 0.00 83 1013.3
20260505075650 56 240 2.0 4.0 0.00 0.00 0.00 83 1013.1
20260505075144 56 256 0.0 2.0 0.00 0.00 0.00 83 1013.0
20260505074410 56 257 0.0 1.0 0.00 0.00 0.00 83 1013.0
20260505074126 56 355 2.0 2.0 0.00 0.00 0.00 84 1013.1
20260505073356 56 220 0.0 2.0 0.00 0.00 0.00 84 1012.8
20260505072851 56 113 0.0 2.0 0.00 0.00 0.00 83 1012.8
20260505072341 56 34 0.0 2.0 0.00 0.00 0.00 83 1012.8
20260505071831 56 205 0.0 2.0 0.00 0.00 0.00 83 1012.7
20260505071326 56 295 1.0 2.0 0.00 0.00 0.00 83 1012.6
20260505070817 56 238 1.0 2.0 0.00 0.00 0.00 82 1012.4
20260505070310 57 269 0.0 2.0 0.00 0.00 0.00 82 1012.6
20260505065758 57 224 0.0 3.0 0.00 0.00 0.00 82 1012.7
20260505065253 57 301 1.0 2.0 0.00 0.00 0.00 81 1012.4
20260505064745 57 201 2.0 4.0 0.00 0.00 0.00 81 1012.5
20260505064238 58 245 1.0 4.0 0.00 0.00 0.00 81 1012.5
20260505063726 58 236 2.0 2.0 0.00 0.00 0.00 81 1012.2
20260505063222 58 147 0.0 3.0 0.00 0.00 0.00 80 1012.1
20260505062707 58 349 1.0 2.0 0.00 0.00 0.00 80 1012.0
20260505062201 59 252 0.0 2.0 0.00 0.00 0.00 80 1011.9
20260505061908 59 249 0.0 2.0 0.00 0.00 0.00 79 1012.0
20260505061143 59 211 2.0 2.0 0.00 0.00 0.00 78 1011.8
20260505060629 60 323 0.0 3.0 0.00 0.00 0.00 78 1011.8
20260505060123 60 315 0.0 3.0 0.00 0.00 0.00 78 1011.8
20260505055615 61 4 0.0 2.0 0.00 0.00 0.00 77 1011.7
20260505055110 61 243 0.0 3.0 0.00 0.00 0.00 77 1011.5
20260505054602 61 146 0.0 2.0 0.00 0.00 0.00 77 1011.6
20260505054053 61 214 0.0 2.0 0.00 0.00 0.00 76 1011.6
20260505053542 61 233 5.0 5.0 0.00 0.00 0.00 77 1011.5
20260505053037 61 269 0.0 2.0 0.00 0.00 0.00 79 1011.6
20260505052523 61 229 0.0 0.0 0.00 0.00 0.00 79 1011.2
20260505052018 61 326 0.0 0.0 0.00 0.00 0.00 78 1011.4
20260505051510 61 130 0.0 1.0 0.00 0.00 0.00 78 1011.5
20260505051005 61 345 0.0 1.0 0.00 0.00 0.00 77 1011.3
20260505050451 62 23 0.0 1.0 0.00 0.00 0.00 77 1011.3
20260505041325 65 36 0.0 2.0 0.00 0.00 0.00 71 1010.6
20260505040811 65 28 0.0 1.0 0.00 0.00 0.00 70 1010.5
20260505040306 66 84 0.0 2.0 0.00 0.00 0.00 69 1010.7
20260505035752 66 30 1.0 1.0 0.00 0.00 0.00 69 1010.5
20260505035507 67 81 0.0 0.0 0.00 0.00 0.00 68 1010.2
20260505034734 67 96 0.0 3.0 0.00 0.00 0.00 68 1010.2
20260505034228 67 180 1.0 4.0 0.00 0.00 0.00 67 1010.1
20260505033720 67 245 1.0 2.0 0.00 0.00 0.00 69 1009.9
20260505033215 68 223 3.0 3.0 0.00 0.00 0.00 69 1009.8
20260505032707 68 206 1.0 2.0 0.00 0.00 0.00 69 1009.9
20260505032203 68 154 0.0 3.0 0.00 0.00 0.00 69 1009.7
20260505031655 69 269 1.0 5.0 0.00 0.00 0.00 68 1009.7
20260505031149 69 217 2.0 3.0 0.00 0.00 0.00 68 1009.7
20260505030636 70 160 0.0 4.0 0.00 0.00 0.00 67 1009.4
20260505030619 70 277 1.0 3.0 0.00 0.00 0.00 67 1009.5
20260505025836 70 188 2.0 4.0 0.00 0.00 0.00 67 1009.4
20260505025111 71 217 0.0 3.0 0.00 0.00 0.00 66 1009.0
20260505024607 71 113 0.0 3.0 0.00 0.00 0.00 65 1009.3
20260505024059 71 196 0.0 4.0 0.00 0.00 0.00 64 1009.1
20260505023553 72 231 2.0 2.0 0.00 0.00 0.00 64 1009.1
20260505023046 72 211 2.0 5.0 0.00 0.00 0.00 63 1009.0
20260505022542 73 200 1.0 4.0 0.00 0.00 0.00 62 1009.2
20260505022029 73 192 1.0 4.0 0.00 0.00 0.00 62 1009.1
20260505021525 73 177 0.0 4.0 0.00 0.00 0.00 61 1009.0
20260505021231 74 173 2.0 3.0 0.00 0.00 0.00 61 1009.2
20260505020505 74 147 3.0 4.0 0.00 0.00 0.00 61 1009.0
20260505015959 74 223 1.0 4.0 0.00 0.00 0.00 60 1009.0
20260505015706 75 275 1.0 3.0 0.00 0.00 0.00 60 1009.1
20260505014941 75 194 2.0 4.0 0.00 0.00 0.00 60 1009.1
20260505014427 74 180 3.0 4.0 0.00 0.00 0.00 60 1009.1
20260505013921 75 211 0.0 3.0 0.00 0.00 0.00 59 1009.0
20260505013413 74 156 1.0 5.0 0.00 0.00 0.00 60 1009.0
20260505012905 74 254 4.0 6.0 0.00 0.00 0.00 60 1009.1
20260505012400 75 195 2.0 5.0 0.00 0.00 0.00 60 1009.3
20260505011851 75 147 0.0 4.0 0.00 0.00 0.00 60 1009.1
20260505011347 75 151 2.0 4.0 0.00 0.00 0.00 60 1009.2
20260505010838 75 189 2.0 6.0 0.00 0.00 0.00 58 1009.2
20260505010333 76 257 2.0 2.0 0.00 0.00 0.00 59 1009.1
20260505005819 76 233 2.0 4.0 0.00 0.00 0.00 59 1009.4
20260505005314 76 242 0.0 4.0 0.00 0.00 0.00 58 1009.3
20260505004800 75 251 1.0 3.0 0.00 0.00 0.00 58 1009.4
20260505004255 75 225 2.0 3.0 0.00 0.00 0.00 59 1009.4
20260505003741 75 203 2.0 6.0 0.00 0.00 0.00 59 1009.5
20260505003236 75 198 2.0 4.0 0.00 0.00 0.00 58 1009.3
20260505002728 75 151 2.0 6.0 0.00 0.00 0.00 58 1009.3
20260505002223 75 207 4.0 4.0 0.00 0.00 0.00 58 1009.4
20260505001709 76 241 2.0 5.0 0.00 0.00 0.00 57 1009.4
20260505001204 75 84 0.0 3.0 0.00 0.00 0.00 58 1009.5
20260505000650 74 202 4.0 7.0 0.00 0.00 0.00 58 1009.5
20260505000144 76 211 2.0 2.0 0.00 0.00 0.00 57 1009.5
20260504235636 75 291 3.0 5.0 0.00 0.00 0.00 57 1009.6
20260504235132 76 256 3.0 6.0 0.00 0.00 0.00 56 1009.5
20260504234623 76 200 2.0 5.0 0.00 0.00 0.00 56 1009.5
20260504234118 76 212 4.0 6.0 0.00 0.00 0.00 56 1009.4
20260504234052 74 187 0.0 6.0 0.00 0.00 0.00 58 1009.6
20260504233101 74 197 4.0 6.0 0.00 0.00 0.00 58 1009.8
20260504232810 74 202 5.0 7.0 0.00 0.00 0.00 58 1009.8
20260504232305 74 278 4.0 6.0 0.00 0.00 0.00 57 1009.7
20260504231537 74 178 4.0 6.0 0.00 0.00 0.00 56 1009.6
20260504231029 74 263 4.0 8.0 0.00 0.00 0.00 56 1009.9
20260504230525 74 83 0.0 4.0 0.00 0.00 0.00 57 1009.7
20260504230011 73 136 0.0 4.0 0.00 0.00 0.00 58 1010.0
20260504225505 73 237 2.0 6.0 0.00 0.00 0.00 58 1010.0
20260504224956 73 220 2.0 6.0 0.00 0.00 0.00 56 1010.0
20260504224452 73 285 5.0 7.0 0.00 0.00 0.00 57 1010.1
20260504223943 73 193 1.0 6.0 0.00 0.00 0.00 58 1010.2
20260504223438 74 240 4.0 6.0 0.00 0.00 0.00 57 1010.1
20260504222930 74 113 0.0 4.0 0.00 0.00 0.00 57 1010.3
20260504222425 72 201 3.0 6.0 0.00 0.00 0.00 58 1010.4
20260504222404 72 11 1.0 5.0 0.00 0.00 0.00 59 1010.4
20260504221412 71 358 2.0 5.0 0.00 0.00 0.00 60 1010.6
20260504220905 70 37 2.0 4.0 0.00 0.00 0.00 60 1010.8
20260504220357 71 214 2.0 6.0 0.00 0.00 0.00 61 1010.7
20260504215846 71 275 1.0 3.0 0.00 0.00 0.00 60 1010.9
20260504215341 71 159 2.0 9.0 0.00 0.00 0.00 59 1010.7
20260504214832 71 328 3.0 5.0 0.00 0.00 0.00 60 1010.8
20260504214325 70 183 3.0 8.0 0.00 0.00 0.00 60 1010.9
20260504213819 69 56 1.0 6.0 0.00 0.00 0.00 61 1010.9
20260504213312 69 232 2.0 5.0 0.00 0.00 0.00 62 1011.1
20260504212806 69 226 3.0 4.0 0.00 0.00 0.00 63 1011.4
20260504212300 68 141 2.0 6.0 0.00 0.00 0.00 64 1011.2
20260504211245 67 318 2.0 6.0 0.00 0.00 0.00 64 1011.5
20260504210731 68 257 4.0 5.0 0.00 0.00 0.00 63 1011.3
20260504210714 67 180 2.0 3.0 0.00 0.00 0.00 65 1011.7
20260504205718 68 34 1.0 5.0 0.00 0.00 0.00 65 1011.6
20260504205214 67 176 2.0 6.0 0.00 0.00 0.00 66 1011.7
20260504204704 66 322 3.0 4.0 0.00 0.00 0.00 66 1011.9
20260504204157 65 328 0.0 6.0 0.00 0.00 0.00 68 1012.1
20260504203912 66 221 6.0 6.0 0.00 0.00 0.00 67 1012.0
20260504203143 65 297 2.0 5.0 0.00 0.00 0.00 68 1012.2
20260504202637 65 201 3.0 8.0 0.00 0.00 0.00 68 1012.1
20260504202123 65 151 1.0 4.0 0.00 0.00 0.00 69 1012.3
20260504201838 65 232 2.0 4.0 0.00 0.00 0.00 67 1012.2
20260504200605 64 206 5.0 5.0 0.00 0.00 0.00 70 1012.5
20260504200052 64 189 1.0 5.0 0.00 0.00 0.00 70 1012.5
20260504195807 63 225 4.0 5.0 0.00 0.00 0.00 72 1012.6
20260504195036 63 282 1.0 7.0 0.00 0.00 0.00 72 1012.7
20260504194533 63 234 4.0 6.0 0.00 0.00 0.00 71 1012.5
20260504194018 62 272 1.0 4.0 0.00 0.00 0.00 72 1012.6
20260504193514 62 294 2.0 7.0 0.00 0.00 0.00 72 1012.6
20260504193004 62 257 3.0 7.0 0.00 0.00 0.00 72 1012.6
20260504192449 61 189 1.0 3.0 0.00 0.00 0.00 75 1012.6
20260504191944 61 209 2.0 5.0 0.00 0.00 0.00 73 1012.9
20260504191435 61 301 1.0 7.0 0.00 0.00 0.00 74 1013.0
20260504190930 60 244 2.0 9.0 0.00 0.00 0.00 76 1013.0
20260504190422 60 238 4.0 7.0 0.00 0.00 0.00 76 1012.8
20260504185917 60 83 2.0 5.0 0.00 0.00 0.00 77 1013.1
20260504185409 59 217 3.0 5.0 0.00 0.00 0.00 78 1012.9
20260504184900 58 230 4.0 9.0 0.00 0.00 0.00 79 1013.2
20260504184356 58 303 1.0 6.0 0.00 0.00 0.00 79 1013.3
20260504183848 58 229 1.0 10.0 0.00 0.00 0.00 79 1013.3
20260504183343 59 234 2.0 4.0 0.00 0.00 0.00 78 1013.3
20260504182828 59 201 1.0 3.0 0.00 0.00 0.00 79 1013.1
20260504182323 58 186 0.0 4.0 0.00 0.00 0.00 79 1013.0
20260504181814 58 140 2.0 6.0 0.00 0.00 0.00 80 1013.0
20260504181309 58 180 3.0 6.0 0.00 0.00 0.00 80 1013.0
20260504180801 58 217 4.0 6.0 0.00 0.00 0.00 79 1013.1
20260504180253 58 251 1.0 6.0 0.00 0.00 0.00 79 1013.1
20260504175237 57 229 0.0 6.0 0.00 0.00 0.00 81 1013.0
20260504174723 57 162 2.0 4.0 0.00 0.00 0.00 81 1013.3
20260504174218 57 223 2.0 6.0 0.00 0.00 0.00 81 1013.0
20260504173709 57 83 2.0 5.0 0.00 0.00 0.00 82 1013.1
20260504173204 57 284 2.0 6.0 0.00 0.00 0.00 82 1013.3
20260504172650 56 231 7.0 8.0 0.00 0.00 0.00 82 1013.1
20260504172145 57 185 3.0 6.0 0.00 0.00 0.00 82 1013.1
20260504171631 56 252 3.0 5.0 0.00 0.00 0.00 82 1013.1
20260504171126 56 225 3.0 4.0 0.00 0.00 0.00 82 1013.0
20260504170612 56 195 3.0 6.0 0.00 0.00 0.00 82 1013.1
20260504170108 56 238 4.0 7.0 0.00 0.00 0.00 83 1013.1
20260504160420 55 200 6.0 6.0 0.00 0.00 0.00 84 1013.2
20260504150758 54 140 0.0 4.0 0.00 0.00 0.00 88 1012.6
20260504150244 54 228 4.0 5.0 0.00 0.00 0.00 88 1012.8
20260504141101 52 29 0.0 4.0 0.00 0.00 0.00 91 1012.0
20260504140104 52 218 2.0 2.0 0.00 0.00 0.00 91 1011.9
20260504130429 52 199 1.0 3.0 0.00 0.00 0.00 90 1011.2